{"data":{"norad_id":58533,"epoch":"2026-05-25T02:27:47.534400Z","epoch_age_seconds":62796,"freshness":"FRESH","line1":"1 58533U 23192C   26145.10263350  .00000320  00000+0  20601-4 0  9996","line2":"2 58533  53.1626  67.1994 0001260  91.9671 268.1476 15.34388222137695","mean_motion":15.34388222,"eccentricity":0.000126,"inclination_deg":53.1626,"raan_deg":67.1994,"arg_perigee_deg":91.9671,"mean_anomaly_deg":268.1476,"bstar":2.0601e-5,"rev_number":13769,"period_min":93.848478458928,"perigee_km":461.87629684799,"apogee_km":463.60019741027,"semimajor_km":6840.8752471291,"source":"CELESTRAK","updated_at":"2026-05-25T13:38:18.660525Z"}}